[[{"header":{"parameterUnit":"m.s-1","parameterCategory":1,"la1":30.2991,"la2":30.254,"lo1":-89.0895,"lo2":-89.0444,"dy":0.0017,"dx":0.0017,"nx":28,"ny":28,"refTime":"2024-12-20T09:00:00:Z","depth":0,"parameterNumber":2,"parameterNumberName":"U-component_of_WINDS"},"data":[0,0,0,0,0,0,0,0,0,0,0,0,0,0,0,0,0,0,0,0,0,0,0,0,0,0,0,0,0,0,0,0,0,0,0,0,0,0,0,0,0,0,0,0,0,0,0,0,0,0,0,0,0,0,0,0,0,0,0.7573,0.7573,0,0.7599,0.7599,0.7599,0.761,0.761,0.761,0.761,0.7636,0.7636,0.7637,0,0,0,0,0,0,0,0,0,0,0,0,0,0.7535,0.7536,0.7573,0.7573,0.7574,0.7599,0.7599,0.7599,0.761,0.761,0.761,0.761,0.7635,0.7636,0.7637,0,0,0,0,0,0,0,0,0,0,0,0,0,0.7555,0.7536,0.7573,0.7582,0.7583,0.7598,0.7599,0.7599,0.761,0.761,0.761,0.761,0.7635,0.7636,0.7637,0.7645,0,0,0.764,0.7641,0,0,0,0,0,0,0,0,0.7554,0.7556,0.758,0.7581,0.7583,0.7601,0.7595,0.7615,0.761,0.76,0.761,0.761,0.7624,0.7626,0.7631,0.7647,0.7648,0.7641,0.7641,0.7642,0.7642,0,0,0,0,0,0,0,0.7553,0.7555,0.7583,0.7581,0.7582,0.7585,0.7588,0.7599,0.7612,0.7601,0.7601,0.7604,0.7625,0.763,0.7632,0.7648,0.7641,0.7642,0.7642,0.7643,0.7674,0.7674,0,0,0,0,0,0,0.755,0.7554,0.7582,0.7584,0.7568,0.7586,0.7589,0.7595,0.7612,0.7614,0.7604,0.7605,0.7628,0.763,0.7633,0.7644,0.7642,0.7643,0.7643,0.7674,0.7674,0.7674,0,0,0,0,0,0,0.7549,0.7552,0.7581,0.7569,0.7573,0.7587,0.7593,0.7596,0.7601,0.7615,0.7617,0.7607,0.7628,0.7631,0.7643,0.7645,0.7643,0.7644,0.7673,0.7674,0.7674,0.7667,0,0,0,0,0,0,0.7548,0.7552,0.7554,0.7569,0.7574,0.759,0.7594,0.7596,0.7603,0.7604,0.7618,0.762,0.7628,0.7641,0.7644,0.7647,0.7645,0.7673,0.7673,0.7674,0.7667,0.7667,0.7667,0,0,0,0,0,0.7546,0.7551,0.7554,0.7558,0.7578,0.759,0.7593,0.7602,0.7603,0.7606,0.7616,0.762,0.7645,0.7642,0.7645,0.7649,0.7673,0.7673,0.7674,0.7667,0.7667,0.7667,0,0,0,0,0,0,0.7535,0.7553,0.7557,0.7567,0.7577,0.7592,0.7596,0.7602,0.7612,0.7612,0.7623,0.7626,0.7637,0.7644,0.7641,0.7659,0.7659,0.766,0.7653,0.7653,0.7653,0.7651,0.7646,0,0,0,0,0,0.7534,0.7543,0.7558,0.7565,0.757,0.7583,0.7589,0.7595,0.7606,0.761,0.762,0.7631,0.7642,0.7648,0.7658,0.7669,0.7673,0.7673,0.7673,0.7673,0.7674,0.7681,0.7682,0.7675,0.7675,0.7675,0,0,0.7532,0.7543,0.7547,0.7564,0.7572,0.7582,0.7586,0.7595,0.7603,0.7612,0.7623,0.7631,0.7644,0.7656,0.7661,0.7662,0.7677,0.7673,0.7673,0.7674,0.7682,0.7682,0.7683,0.7675,0.7675,0.7675,0,0,0.7532,0.7541,0.7548,0.7558,0.7571,0.758,0.7581,0.7596,0.7602,0.7614,0.7622,0.7631,0.7648,0.7657,0.7664,0.7671,0.7676,0.7674,0.7673,0.7681,0.7681,0.7682,0.7685,0.7686,0.7675,0.7675,0.7675,0,0.7527,0.7541,0.7552,0.7561,0.7569,0.7578,0.7586,0.7595,0.7611,0.7616,0.7617,0.764,0.7649,0.7664,0.7666,0.7671,0.7674,0.7672,0.768,0.7681,0.7682,0.7685,0.7686,0.7674,0.7674,0.7674,0.7674,0,0.7535,0.7545,0.755,0.7566,0.7574,0.7582,0.7595,0.7602,0.7608,0.7617,0.763,0.7642,0.7655,0.7659,0.7665,0.7675,0.7676,0.7678,0.7679,0.7682,0.7685,0.7686,0.7674,0.7674,0.7674,0.7674,0,0,0.7527,0.7551,0.7552,0.756,0.7577,0.7585,0.7595,0.7609,0.7615,0.7627,0.7636,0.7651,0.7655,0.7663,0.767,0.7676,0.7682,0.7679,0.7679,0.7679,0.7695,0.7693,0.7694,0.7686,0.7686,0.7686,0.7694,0,0.753,0.7548,0.7559,0.7573,0.7583,0.7593,0.7602,0.7614,0.7623,0.7633,0.7643,0.7654,0.7657,0.7662,0.7669,0.768,0.7685,0.7679,0.7695,0.7695,0.7691,0.7695,0.7693,0.7699,0.7695,0.7696,0.7696,0,0.7535,0.7547,0.7562,0.7579,0.7584,0.7592,0.7606,0.7616,0.763,0.7636,0.7646,0.7654,0.7666,0.7666,0.7684,0.7679,0.7687,0.7693,0.7694,0.7695,0.7695,0.7697,0.7702,0.7703,0.7698,0.7697,0.7697,0,0.7529,0.7549,0.7561,0.7567,0.7588,0.7593,0.7602,0.7616,0.7624,0.7637,0.7642,0.7656,0.7664,0.7675,0.7687,0.7686,0.7703,0.7705,0.7709,0.7709,0.7712,0.7711,0.7718,0.7716,0.7716,0.7716,0.7716,0,0.7531,0.754,0.7558,0.7566,0.7577,0.7589,0.76,0.761,0.7622,0.7632,0.7642,0.7652,0.7667,0.7678,0.7687,0.7701,0.7704,0.771,0.7712,0.7709,0.7708,0.7713,0.7713,0.7717,0.7717,0.7717,0.7717,0,0.7525,0.7538,0.7552,0.757,0.7575,0.7583,0.7599,0.7607,0.7617,0.763,0.7634,0.765,0.7664,0.7677,0.7696,0.7702,0.7716,0.7719,0.7711,0.7712,0.7716,0.7716,0.7726,0.7729,0.7726,0.7726,0.7726,0,0.7525,0.7532,0.7552,0.756,0.7568,0.758,0.7589,0.7603,0.7612,0.763,0.7636,0.7651,0.7663,0.7686,0.7699,0.7714,0.7718,0.772,0.772,0.7717,0.7718,0.7718,0.7719,0.772,0.772,0.772,0.772,0,0.7524,0.7531,0.7543,0.7558,0.7568,0.7581,0.7593,0.7599,0.7616,0.7625,0.764,0.765,0.767,0.7685,0.7702,0.7712,0.7719,0.772,0.7722,0.7719,0.7714,0.7717,0.7711,0.772,0.772,0.772,0.772,0.772,0.7522,0.7529,0.7545,0.7558,0.757,0.7582,0.7591,0.7603,0.7616,0.7633,0.7641,0.7656,0.7672,0.7695,0.7705,0.7718,0.7719,0.7722,0.7722,0.7723,0.7723,0.7712,0.7721,0.7721,0.7721,0.7721,0.7721,0,0.7522,0.7533,0.7545,0.7563,0.7575,0.7581,0.7596,0.7605,0.7618,0.7633,0.7645,0.7664,0.7679,0.7695,0.7711,0.7718,0.7722,0.7722,0.7722,0.7724,0.772,0.7717,0.7719,0.7719,0.7719,0.7719,0.7719,0.7719,0.7523,0.7536,0.7545,0.7565,0.7576,0.7591,0.7599,0.7611,0.7623,0.7642,0.7655,0.7666,0.7681,0.7699,0.7714,0.7718,0.7724,0.7723,0.7728,0.7724,0.7724,0.7724,0.7721,0.7724,0.7724,0.7731,0.7731,0.7731]},{"header":{"parameterUnit":"m.s-1","parameterCategory":1,"la1":30.2991,"la2":30.254,"lo1":-89.0895,"lo2":-89.0444,"dy":0.0017,"dx":0.0017,"nx":28,"ny":28,"refTime":"2024-12-20T09:00:00:Z","depth":0,"parameterNumber":3,"parameterNumberName":"V-component_of_WINDS"},"data":[0,0,0,0,0,0,0,0,0,0,0,0,0,0,0,0,0,0,0,0,0,0,0,0,0,0,0,0,0,0,0,0,0,0,0,0,0,0,0,0,0,0,0,0,0,0,0,0,0,0,0,0,0,0,0,0,0,0,-8.5119,-8.5121,0,-8.5281,-8.5282,-8.5284,-8.5198,-8.5194,-8.519,-8.5186,-8.5343,-8.5351,-8.536,0,0,0,0,0,0,0,0,0,0,0,0,0,-8.473,-8.4737,-8.5119,-8.5121,-8.5123,-8.528,-8.5282,-8.5285,-8.5199,-8.5194,-8.5189,-8.5184,-8.5341,-8.535,-8.536,0,0,0,0,0,0,0,0,0,0,0,0,0,-8.4895,-8.474,-8.5118,-8.5099,-8.5099,-8.528,-8.5283,-8.5285,-8.52,-8.5194,-8.5187,-8.5181,-8.5337,-8.5349,-8.5362,-8.5568,0,0,-8.5399,-8.5405,0,0,0,0,0,0,0,0,-8.4886,-8.491,-8.51,-8.5101,-8.5101,-8.5213,-8.5203,-8.538,-8.5202,-8.5162,-8.5185,-8.5178,-8.5305,-8.5319,-8.5364,-8.5575,-8.5582,-8.5401,-8.5408,-8.5413,-8.5417,0,0,0,0,0,0,0,-8.4875,-8.4902,-8.5182,-8.5103,-8.5104,-8.508,-8.5097,-8.5236,-8.5267,-8.5165,-8.5159,-8.518,-8.5304,-8.5352,-8.5367,-8.5584,-8.54,-8.5411,-8.5419,-8.5424,-8.5973,-8.598,0,0,0,0,0,0,-8.4865,-8.4893,-8.5177,-8.5187,-8.4976,-8.5093,-8.5111,-8.5183,-8.5266,-8.5272,-8.5185,-8.5175,-8.5334,-8.5352,-8.5372,-8.5619,-8.5413,-8.5425,-8.5432,-8.5966,-8.5975,-8.5983,0,0,0,0,0,0,-8.4857,-8.4892,-8.5171,-8.5039,-8.5073,-8.5107,-8.5188,-8.519,-8.5238,-8.5281,-8.5285,-8.5229,-8.533,-8.5355,-8.5521,-8.5623,-8.543,-8.5442,-8.5958,-8.5969,-8.5979,-8.6116,0,0,0,0,0,0,-8.4847,-8.4889,-8.4969,-8.5042,-8.508,-8.5319,-8.5195,-8.5198,-8.5261,-8.5249,-8.5324,-8.533,-8.5326,-8.5503,-8.5533,-8.5637,-8.5451,-8.5949,-8.5963,-8.5976,-8.6102,-8.613,-8.6153,0,0,0,0,0,-8.4833,-8.5,-8.4974,-8.5009,-8.5182,-8.5325,-8.5347,-8.5342,-8.5269,-8.5349,-8.5377,-8.5327,-8.5608,-8.552,-8.5554,-8.5663,-8.5942,-8.5959,-8.5975,-8.609,-8.6124,-8.6153,0,0,0,0,0,0,-8.4936,-8.5009,-8.4981,-8.5176,-8.5246,-8.5311,-8.5411,-8.5378,-8.5468,-8.5453,-8.544,-8.5458,-8.5631,-8.5663,-8.5565,-8.5867,-8.5763,-8.5787,-8.584,-8.5872,-8.5898,-8.5886,-8.5462,0,0,0,0,0,-8.4982,-8.5095,-8.5151,-8.5318,-8.5355,-8.5378,-8.544,-8.5431,-8.5501,-8.5529,-8.5568,-8.5636,-8.5739,-8.5807,-8.5905,-8.6106,-8.6121,-8.6198,-8.6224,-8.6244,-8.6265,-8.6374,-8.6409,-8.6036,-8.6036,-8.6036,0,0,-8.5077,-8.513,-8.5202,-8.534,-8.5393,-8.5508,-8.5403,-8.5529,-8.5614,-8.5547,-8.5707,-8.5739,-8.5813,-8.5998,-8.6081,-8.603,-8.6371,-8.6265,-8.6281,-8.6291,-8.6394,-8.6429,-8.6461,-8.6047,-8.6045,-8.6043,0,0,-8.5309,-8.5362,-8.5507,-8.5563,-8.5645,-8.5659,-8.5694,-8.5765,-8.5784,-8.5945,-8.5898,-8.5997,-8.6175,-8.6231,-8.6283,-8.6538,-8.6495,-8.6569,-8.6703,-8.681,-8.6839,-8.6865,-8.6956,-8.6989,-8.659,-8.659,-8.659,0,-8.5416,-8.559,-8.5585,-8.5716,-8.5778,-8.5726,-8.5872,-8.5925,-8.6034,-8.6077,-8.6019,-8.6242,-8.6289,-8.6486,-8.6549,-8.6592,-8.6631,-8.6561,-8.6836,-8.6862,-8.6886,-8.6972,-8.7007,-8.6599,-8.6598,-8.6597,-8.6596,0,-8.5718,-8.584,-8.5947,-8.6057,-8.613,-8.6268,-8.6282,-8.6357,-8.6341,-8.6361,-8.6525,-8.658,-8.6688,-8.6734,-8.6718,-8.6929,-8.6895,-8.6837,-8.6732,-8.693,-8.7011,-8.7044,-8.6611,-8.6608,-8.6605,-8.6603,0,0,-8.6018,-8.6125,-8.6165,-8.6214,-8.6302,-8.6394,-8.6529,-8.6638,-8.6702,-8.6779,-8.6891,-8.7044,-8.6991,-8.705,-8.704,-8.7134,-8.7333,-8.7064,-8.7065,-8.7112,-8.7568,-8.7611,-8.765,-8.7305,-8.7311,-8.7316,-8.7562,0,-8.6257,-8.6496,-8.6496,-8.6716,-8.6828,-8.678,-8.6898,-8.6963,-8.6986,-8.7082,-8.7105,-8.7214,-8.7136,-8.7171,-8.7262,-8.7289,-8.7424,-8.7271,-8.7407,-8.7412,-8.739,-8.7692,-8.7738,-8.7967,-8.7593,-8.7599,-8.7602,0,-8.6567,-8.6657,-8.689,-8.6962,-8.7009,-8.7115,-8.7214,-8.7308,-8.738,-8.739,-8.7457,-8.7433,-8.7568,-8.746,-8.7646,-8.7542,-8.7598,-8.762,-8.7628,-8.764,-8.7519,-8.7712,-8.804,-8.8074,-8.7652,-8.7648,-8.7645,0,-8.6763,-8.6942,-8.7105,-8.7149,-8.7237,-8.7313,-8.7352,-8.7419,-8.7484,-8.757,-8.7613,-8.7712,-8.7767,-8.7844,-8.7847,-8.7768,-8.8034,-8.7926,-8.8044,-8.8045,-8.8102,-8.8099,-8.8443,-8.8139,-8.8138,-8.8137,-8.8137,0,-8.7029,-8.7173,-8.7195,-8.7295,-8.7454,-8.7451,-8.7608,-8.7641,-8.7701,-8.7804,-8.7768,-8.7866,-8.7865,-8.7963,-8.7966,-8.8119,-8.8144,-8.8154,-8.8153,-8.8158,-8.8157,-8.8193,-8.8178,-8.8147,-8.8145,-8.8143,-8.8141,0,-8.7275,-8.7296,-8.747,-8.754,-8.7561,-8.7676,-8.7734,-8.7829,-8.7848,-8.798,-8.8011,-8.8041,-8.8155,-8.8167,-8.8298,-8.83,-8.8486,-8.8467,-8.8462,-8.8459,-8.8577,-8.8566,-8.8957,-8.9008,-8.8671,-8.8674,-8.8676,0,-8.7444,-8.7554,-8.7637,-8.7706,-8.7751,-8.7861,-8.7929,-8.793,-8.8001,-8.8093,-8.8176,-8.8288,-8.8377,-8.8562,-8.8594,-8.8695,-8.8678,-8.8809,-8.8693,-8.8694,-8.868,-8.8674,-8.8685,-8.8831,-8.8835,-8.8838,-8.884,0,-8.7741,-8.7746,-8.7846,-8.7951,-8.8034,-8.8115,-8.8191,-8.8249,-8.8259,-8.8341,-8.846,-8.8529,-8.8666,-8.8777,-8.8876,-8.8914,-8.8879,-8.8877,-8.8909,-8.8915,-8.8907,-8.8913,-8.8523,-8.8867,-8.8865,-8.8863,-8.8861,-8.886,-8.7953,-8.8049,-8.8123,-8.8236,-8.8295,-8.8367,-8.846,-8.8493,-8.8592,-8.8706,-8.87,-8.883,-8.8899,-8.903,-8.9076,-8.9176,-8.9132,-8.918,-8.9191,-8.9203,-8.9215,-8.8892,-8.9194,-8.9193,-8.9193,-8.9192,-8.9191,0,-8.8248,-8.8294,-8.8398,-8.8508,-8.8597,-8.856,-8.8642,-8.8718,-8.8835,-8.8904,-8.8994,-8.913,-8.9238,-8.9279,-8.9384,-8.9456,-8.9443,-8.9484,-8.9478,-8.9487,-8.9249,-8.921,-8.9493,-8.9493,-8.9493,-8.9493,-8.9493,-8.9493,-8.8412,-8.8573,-8.8587,-8.8776,-8.882,-8.8951,-8.9001,-8.9068,-8.9123,-8.9278,-8.9368,-8.9396,-8.9453,-8.9562,-8.9659,-8.9668,-8.9708,-8.9756,-8.9758,-8.9534,-8.9504,-8.9475,-8.9439,-8.9765,-8.9765,-8.9988,-8.999,-8.9992]}]]